Year,Month,Day,Hour,Minute,Value (Times are PST for temperature in C)
2008,05,18,00,00,16.40
2008,05,18,00,01,16.40
2008,05,18,00,02,16.30
2008,05,18,00,03,16.30
2008,05,18,00,04,16.30
2008,05,18,00,05,16.20
2008,05,18,00,06,16.20
2008,05,18,00,07,16.20
2008,05,18,00,08,16.20
2008,05,18,00,09,16.20
2008,05,18,00,10,16.10
2008,05,18,00,11,16.10
2008,05,18,00,12,16.10
2008,05,18,00,13,16.20
2008,05,18,00,14,16.20
2008,05,18,00,15,16.10
2008,05,18,00,16,16.10
2008,05,18,00,17,16.10
2008,05,18,00,18,16.10
2008,05,18,00,19,16.10
2008,05,18,00,20,16.10
2008,05,18,00,21,16.10
2008,05,18,00,22,16.10
2008,05,18,00,23,16.10
2008,05,18,00,24,16.00
2008,05,18,00,25,16.00
2008,05,18,00,26,16.00
2008,05,18,00,27,16.00
2008,05,18,00,28,15.90
2008,05,18,00,29,15.90
2008,05,18,00,30,15.90
2008,05,18,00,31,15.90
2008,05,18,00,32,15.90
2008,05,18,00,33,15.90
2008,05,18,00,34,15.90
2008,05,18,00,35,15.90
2008,05,18,00,36,15.90
2008,05,18,00,37,15.90
2008,05,18,00,38,16.00
2008,05,18,00,39,16.00
2008,05,18,00,40,16.10
2008,05,18,00,41,16.10
2008,05,18,00,42,16.20
2008,05,18,00,43,16.20
2008,05,18,00,44,16.20
2008,05,18,00,45,16.30
2008,05,18,00,46,16.40
2008,05,18,00,47,16.40
2008,05,18,00,48,16.50
2008,05,18,00,49,16.50
2008,05,18,00,50,16.60
2008,05,18,00,51,16.60
2008,05,18,00,52,16.60
2008,05,18,00,53,16.60
2008,05,18,00,54,16.60
2008,05,18,00,55,16.60
2008,05,18,00,56,16.60
2008,05,18,00,57,16.60
2008,05,18,00,58,16.60
2008,05,18,00,59,16.70
2008,05,18,01,00,16.80
2008,05,18,01,01,16.80
2008,05,18,01,02,16.80
2008,05,18,01,03,16.80
2008,05,18,01,04,16.80
2008,05,18,01,05,16.80
2008,05,18,01,06,16.90
2008,05,18,01,07,17.00
2008,05,18,01,08,17.10
2008,05,18,01,09,17.20
2008,05,18,01,10,17.20
2008,05,18,01,11,17.20
2008,05,18,01,12,17.20
2008,05,18,01,13,17.30
2008,05,18,01,14,17.30
2008,05,18,01,15,17.30
2008,05,18,01,16,17.30
2008,05,18,01,17,17.40
2008,05,18,01,18,17.40
2008,05,18,01,19,17.40
2008,05,18,01,20,17.50
2008,05,18,01,21,17.50
2008,05,18,01,22,17.60
2008,05,18,01,23,17.70
2008,05,18,01,24,17.70
2008,05,18,01,25,17.80
2008,05,18,01,26,17.90
2008,05,18,01,27,18.00
2008,05,18,01,28,18.10
2008,05,18,01,29,18.20
2008,05,18,01,30,18.30
2008,05,18,01,31,18.40
2008,05,18,01,32,18.50
2008,05,18,01,33,18.60
2008,05,18,01,34,18.70
2008,05,18,01,35,18.70
2008,05,18,01,36,18.80
2008,05,18,01,37,18.90
2008,05,18,01,38,18.90
2008,05,18,01,39,19.00
2008,05,18,01,40,19.00
2008,05,18,01,41,19.10
2008,05,18,01,42,19.10
2008,05,18,01,43,19.10
2008,05,18,01,44,19.10
2008,05,18,01,45,19.10
2008,05,18,01,46,19.10
2008,05,18,01,47,19.10
2008,05,18,01,48,19.10
2008,05,18,01,49,19.10
2008,05,18,01,50,19.10
2008,05,18,01,51,19.10
2008,05,18,01,52,19.10
2008,05,18,01,53,19.10
2008,05,18,01,54,19.10
2008,05,18,01,55,19.10
2008,05,18,01,56,19.00
2008,05,18,01,57,19.00
2008,05,18,01,58,19.00
2008,05,18,01,59,18.90
2008,05,18,02,00,18.90
2008,05,18,02,01,18.90
2008,05,18,02,02,18.90
2008,05,18,02,03,18.80
2008,05,18,02,04,18.80
2008,05,18,02,05,18.80
2008,05,18,02,06,18.80
2008,05,18,02,07,18.80
2008,05,18,02,08,18.80
2008,05,18,02,09,18.80
2008,05,18,02,10,18.90
2008,05,18,02,11,18.90
2008,05,18,02,12,18.90
2008,05,18,02,13,18.90
2008,05,18,02,14,18.90
2008,05,18,02,15,18.90
2008,05,18,02,16,18.90
2008,05,18,02,17,18.90
2008,05,18,02,18,18.90
2008,05,18,02,19,18.90
2008,05,18,02,20,18.90
2008,05,18,02,21,18.90
2008,05,18,02,22,18.90
2008,05,18,02,23,18.90
2008,05,18,02,24,18.80
2008,05,18,02,25,18.80
2008,05,18,02,26,18.80
2008,05,18,02,27,18.70
2008,05,18,02,28,18.60
2008,05,18,02,29,18.60
2008,05,18,02,30,18.60
2008,05,18,02,31,18.60
2008,05,18,02,32,18.50
2008,05,18,02,33,18.50
2008,05,18,02,34,18.50
2008,05,18,02,35,18.40
2008,05,18,02,36,18.40
2008,05,18,02,37,18.40
2008,05,18,02,38,18.40
2008,05,18,02,39,18.30
2008,05,18,02,40,18.20
2008,05,18,02,41,18.20
2008,05,18,02,42,18.10
2008,05,18,02,43,18.00
2008,05,18,02,44,17.90
2008,05,18,02,45,17.80
2008,05,18,02,46,17.70
2008,05,18,02,47,17.70
2008,05,18,02,48,17.60
2008,05,18,02,49,17.60
2008,05,18,02,50,17.60
2008,05,18,02,51,17.60
2008,05,18,02,52,17.60
2008,05,18,02,53,17.70
2008,05,18,02,54,17.70
2008,05,18,02,55,17.80
2008,05,18,02,56,17.80
2008,05,18,02,57,17.90
2008,05,18,02,58,18.00
2008,05,18,02,59,18.00
2008,05,18,03,00,18.10
2008,05,18,03,01,18.20
2008,05,18,03,02,18.20
2008,05,18,03,03,18.20
2008,05,18,03,04,18.20
2008,05,18,03,05,18.20
2008,05,18,03,06,18.20
2008,05,18,03,07,18.20
2008,05,18,03,08,18.10
2008,05,18,03,09,18.10
2008,05,18,03,10,18.10
2008,05,18,03,11,18.10
2008,05,18,03,12,18.10
2008,05,18,03,13,18.00
2008,05,18,03,14,18.00
2008,05,18,03,15,17.90
2008,05,18,03,16,17.90
2008,05,18,03,17,17.90
2008,05,18,03,18,17.80
2008,05,18,03,19,17.80
2008,05,18,03,20,17.80
2008,05,18,03,21,17.70
2008,05,18,03,22,17.70
2008,05,18,03,23,17.60
2008,05,18,03,24,17.60
2008,05,18,03,25,17.50
2008,05,18,03,26,17.40
2008,05,18,03,27,17.30
2008,05,18,03,28,17.20
2008,05,18,03,29,17.10
2008,05,18,03,30,17.00
2008,05,18,03,31,16.80
2008,05,18,03,32,16.70
2008,05,18,03,33,16.60
2008,05,18,03,34,16.50
2008,05,18,03,35,16.40
2008,05,18,03,36,16.30
2008,05,18,03,37,16.20
2008,05,18,03,38,16.10
2008,05,18,03,39,16.10
2008,05,18,03,40,16.00
2008,05,18,03,41,16.00
2008,05,18,03,42,15.90
2008,05,18,03,43,15.90
2008,05,18,03,44,15.90
2008,05,18,03,45,15.90
2008,05,18,03,46,15.80
2008,05,18,03,47,15.80
2008,05,18,03,48,15.80
2008,05,18,03,49,15.70
2008,05,18,03,50,15.70
2008,05,18,03,51,15.70
2008,05,18,03,52,15.60
2008,05,18,03,53,15.60
2008,05,18,03,54,15.60
2008,05,18,03,55,15.60
2008,05,18,03,56,15.60
2008,05,18,03,57,15.50
2008,05,18,03,58,15.50
2008,05,18,03,59,15.50
2008,05,18,04,00,15.50
2008,05,18,04,01,15.50
2008,05,18,04,02,15.50
2008,05,18,04,03,15.50
2008,05,18,04,04,15.50
2008,05,18,04,05,15.50
2008,05,18,04,06,15.50
2008,05,18,04,07,15.60
2008,05,18,04,08,15.60
2008,05,18,04,09,15.60
2008,05,18,04,10,15.50
2008,05,18,04,11,15.50
2008,05,18,04,12,15.50
2008,05,18,04,13,15.50
2008,05,18,04,14,15.50
2008,05,18,04,15,15.50
2008,05,18,04,16,15.50
2008,05,18,04,17,15.50
2008,05,18,04,18,15.40
2008,05,18,04,19,15.40
2008,05,18,04,20,15.40
2008,05,18,04,21,15.40
2008,05,18,04,22,15.40
2008,05,18,04,23,15.40
2008,05,18,04,24,15.40
2008,05,18,04,25,15.40
2008,05,18,04,26,15.30
2008,05,18,04,27,15.30
2008,05,18,04,28,15.30
2008,05,18,04,29,15.30
2008,05,18,04,30,15.20
2008,05,18,04,31,15.20
2008,05,18,04,32,15.10
2008,05,18,04,33,15.10
2008,05,18,04,34,15.10
2008,05,18,04,35,15.00
2008,05,18,04,36,15.00
2008,05,18,04,37,15.00
2008,05,18,04,38,15.00
2008,05,18,04,39,15.00
2008,05,18,04,40,15.00
2008,05,18,04,41,15.00
2008,05,18,04,42,15.00
2008,05,18,04,43,15.00
2008,05,18,04,44,15.00
2008,05,18,04,45,15.00
2008,05,18,04,46,15.00
2008,05,18,04,47,15.00
2008,05,18,04,48,15.00
2008,05,18,04,49,15.00
2008,05,18,04,50,15.00
2008,05,18,04,51,15.00
2008,05,18,04,52,15.00
2008,05,18,04,53,15.00
2008,05,18,04,54,15.00
2008,05,18,04,55,15.00
2008,05,18,04,56,15.00
2008,05,18,04,57,15.00
2008,05,18,04,58,15.00
2008,05,18,04,59,15.10
2008,05,18,05,00,15.10
2008,05,18,05,01,15.10
2008,05,18,05,02,15.10
2008,05,18,05,03,15.20
2008,05,18,05,04,15.20
2008,05,18,05,05,15.20
2008,05,18,05,06,15.20
2008,05,18,05,07,15.20
2008,05,18,05,08,15.20
2008,05,18,05,09,15.20
2008,05,18,05,10,15.20
2008,05,18,05,11,15.20
2008,05,18,05,12,15.20
2008,05,18,05,13,15.20
2008,05,18,05,14,15.20
2008,05,18,05,15,15.30
2008,05,18,05,16,15.40
2008,05,18,05,17,15.50
2008,05,18,05,18,15.60
2008,05,18,05,19,15.60
2008,05,18,05,20,15.70
2008,05,18,05,21,15.70
2008,05,18,05,22,15.70
2008,05,18,05,23,15.70
2008,05,18,05,24,15.70
2008,05,18,05,25,15.70
2008,05,18,05,26,15.70
2008,05,18,05,27,15.70
2008,05,18,05,28,15.70
2008,05,18,05,29,15.70
2008,05,18,05,30,15.70
2008,05,18,05,31,15.60
2008,05,18,05,32,15.60
2008,05,18,05,33,15.60
2008,05,18,05,34,15.60
2008,05,18,05,35,15.60
2008,05,18,05,36,15.60
2008,05,18,05,37,15.60
2008,05,18,05,38,15.60
2008,05,18,05,39,15.60
2008,05,18,05,40,15.70
2008,05,18,05,41,15.70
2008,05,18,05,42,15.70
2008,05,18,05,43,15.70
2008,05,18,05,44,15.80
2008,05,18,05,45,15.80
2008,05,18,05,46,15.80
2008,05,18,05,47,15.90
2008,05,18,05,48,15.90
2008,05,18,05,49,15.90
2008,05,18,05,50,16.00
2008,05,18,05,51,16.00
2008,05,18,05,52,16.00
2008,05,18,05,53,16.10
2008,05,18,05,54,16.10
2008,05,18,05,55,16.10
2008,05,18,05,56,16.20
2008,05,18,05,57,16.20
2008,05,18,05,58,16.20
2008,05,18,05,59,16.20
2008,05,18,06,00,16.30
2008,05,18,06,01,16.30
2008,05,18,06,02,16.30
2008,05,18,06,03,16.30
2008,05,18,06,04,16.30
2008,05,18,06,05,16.30
2008,05,18,06,06,16.30
2008,05,18,06,07,16.30
2008,05,18,06,08,16.30
2008,05,18,06,09,16.30
2008,05,18,06,10,16.30
2008,05,18,06,11,16.30
2008,05,18,06,12,16.30
2008,05,18,06,13,16.30
2008,05,18,06,14,16.30
2008,05,18,06,15,16.30
2008,05,18,06,16,16.30
2008,05,18,06,17,16.30
2008,05,18,06,18,16.40
2008,05,18,06,19,16.40
2008,05,18,06,20,16.40
2008,05,18,06,21,16.40
2008,05,18,06,22,16.40
2008,05,18,06,23,16.50
2008,05,18,06,24,16.50
2008,05,18,06,25,16.50
2008,05,18,06,26,16.60
2008,05,18,06,27,16.60
2008,05,18,06,28,16.60
2008,05,18,06,29,16.60
2008,05,18,06,30,16.70
2008,05,18,06,31,16.70
2008,05,18,06,32,16.70
2008,05,18,06,33,16.70
2008,05,18,06,34,16.70
2008,05,18,06,35,16.70
2008,05,18,06,36,16.70
2008,05,18,06,37,16.70
2008,05,18,06,38,16.70
2008,05,18,06,39,16.70
2008,05,18,06,40,16.70
2008,05,18,06,41,16.70
2008,05,18,06,42,16.70
2008,05,18,06,43,16.80
2008,05,18,06,44,16.80
2008,05,18,06,45,16.80
2008,05,18,06,46,16.90
2008,05,18,06,47,17.00
2008,05,18,06,48,17.10
2008,05,18,06,49,17.10
2008,05,18,06,50,17.20
2008,05,18,06,51,17.30
2008,05,18,06,52,17.40
2008,05,18,06,53,17.50
2008,05,18,06,54,17.60
2008,05,18,06,55,17.80
2008,05,18,06,56,17.90
2008,05,18,06,57,18.00
2008,05,18,06,58,18.10
2008,05,18,06,59,18.20
2008,05,18,07,00,18.30
2008,05,18,07,01,18.40
2008,05,18,07,02,18.40
2008,05,18,07,03,18.50
2008,05,18,07,04,18.60
2008,05,18,07,05,18.60
2008,05,18,07,06,18.70
2008,05,18,07,07,18.70
2008,05,18,07,08,18.70
2008,05,18,07,09,18.80
2008,05,18,07,10,18.80
2008,05,18,07,11,18.90
2008,05,18,07,12,18.90
2008,05,18,07,13,18.90
2008,05,18,07,14,18.90
2008,05,18,07,15,18.90
2008,05,18,07,16,19.00
2008,05,18,07,17,19.00
2008,05,18,07,18,19.10
2008,05,18,07,19,19.10
2008,05,18,07,20,19.10
2008,05,18,07,21,19.10
2008,05,18,07,22,19.10
2008,05,18,07,23,19.10
2008,05,18,07,24,19.20
2008,05,18,07,25,19.10
2008,05,18,07,26,19.10
2008,05,18,07,27,19.00
2008,05,18,07,28,19.00
2008,05,18,07,29,18.90
2008,05,18,07,30,18.90
2008,05,18,07,31,18.90
2008,05,18,07,32,18.80
2008,05,18,07,33,18.80
2008,05,18,07,34,18.80
2008,05,18,07,35,18.80
2008,05,18,07,36,18.80
2008,05,18,07,37,18.90
2008,05,18,07,38,18.90
2008,05,18,07,39,19.00
2008,05,18,07,40,19.10
2008,05,18,07,41,19.10
2008,05,18,07,42,19.10
2008,05,18,07,43,19.20
2008,05,18,07,44,19.20
2008,05,18,07,45,19.30
2008,05,18,07,46,19.30
2008,05,18,07,47,19.30
2008,05,18,07,48,19.30
2008,05,18,07,49,19.30
2008,05,18,07,50,19.30
2008,05,18,07,51,19.30
2008,05,18,07,52,19.30
2008,05,18,07,53,19.30
2008,05,18,07,54,19.30
2008,05,18,07,55,19.30
2008,05,18,07,56,19.30
2008,05,18,07,57,19.30
2008,05,18,07,58,19.40
2008,05,18,07,59,19.40
2008,05,18,08,00,19.40
2008,05,18,08,01,19.30
2008,05,18,08,02,19.30
2008,05,18,08,03,19.20
2008,05,18,08,04,19.20
2008,05,18,08,05,19.10
2008,05,18,08,06,19.10
2008,05,18,08,07,19.10
2008,05,18,08,08,19.10
2008,05,18,08,09,19.10
2008,05,18,08,10,19.00
2008,05,18,08,11,18.90
2008,05,18,08,12,18.90
2008,05,18,08,13,18.90
2008,05,18,08,14,18.80
2008,05,18,08,15,18.70
2008,05,18,08,16,18.70
2008,05,18,08,17,18.60
2008,05,18,08,18,18.50
2008,05,18,08,19,18.50
2008,05,18,08,20,18.40
2008,05,18,08,21,18.40
2008,05,18,08,22,18.40
2008,05,18,08,23,18.30
2008,05,18,08,24,18.30
2008,05,18,08,25,18.30
2008,05,18,08,26,18.30
2008,05,18,08,27,18.30
2008,05,18,08,28,18.30
2008,05,18,08,29,18.30
2008,05,18,08,30,18.30
2008,05,18,08,31,18.30
2008,05,18,08,32,18.30
2008,05,18,08,33,18.30
2008,05,18,08,34,18.30
2008,05,18,08,35,18.30
2008,05,18,08,36,18.30
2008,05,18,08,37,18.30
2008,05,18,08,38,18.30
2008,05,18,08,39,18.30
2008,05,18,08,40,18.30
2008,05,18,08,41,18.30
2008,05,18,08,42,18.30
2008,05,18,08,43,18.20
2008,05,18,08,44,18.20
2008,05,18,08,45,18.20
2008,05,18,08,46,18.20
2008,05,18,08,47,18.10
2008,05,18,08,48,18.10
2008,05,18,08,49,18.00
2008,05,18,08,50,17.90
2008,05,18,08,51,17.90
2008,05,18,08,52,17.90
2008,05,18,08,53,17.90
2008,05,18,08,54,17.90
2008,05,18,08,55,17.90
2008,05,18,08,56,17.90
2008,05,18,08,57,18.00
2008,05,18,08,58,18.00
2008,05,18,08,59,18.10
2008,05,18,09,00,18.10
2008,05,18,09,01,18.10
2008,05,18,09,02,18.20
2008,05,18,09,03,18.20
2008,05,18,09,04,18.30
2008,05,18,09,05,18.30
2008,05,18,09,06,18.30
2008,05,18,09,07,18.20
2008,05,18,09,08,18.20
2008,05,18,09,09,18.20
2008,05,18,09,10,18.20
2008,05,18,09,11,18.20
2008,05,18,09,12,18.10
2008,05,18,09,13,18.00
2008,05,18,09,14,17.90
2008,05,18,09,15,17.80
2008,05,18,09,16,17.80
2008,05,18,09,17,17.70
2008,05,18,09,18,17.70
2008,05,18,09,19,17.70
2008,05,18,09,20,17.70
2008,05,18,09,21,17.80
2008,05,18,09,22,17.90
2008,05,18,09,23,17.90
2008,05,18,09,24,18.00
2008,05,18,09,25,18.00
2008,05,18,09,26,18.10
2008,05,18,09,27,18.10
2008,05,18,09,28,18.10
2008,05,18,09,29,18.10
2008,05,18,09,30,18.10
2008,05,18,09,31,18.10
2008,05,18,09,32,18.10
2008,05,18,09,33,18.10
2008,05,18,09,34,18.00
2008,05,18,09,35,18.00
2008,05,18,09,36,18.10
2008,05,18,09,37,18.20
2008,05,18,09,38,18.20
2008,05,18,09,39,18.20
2008,05,18,09,40,18.10
2008,05,18,09,41,18.00
2008,05,18,09,42,17.90
2008,05,18,09,43,17.90
2008,05,18,09,44,17.90
2008,05,18,09,45,17.90
2008,05,18,09,46,17.90
2008,05,18,09,47,17.90
2008,05,18,09,48,17.90
2008,05,18,09,49,18.00
2008,05,18,09,50,18.10
2008,05,18,09,51,18.10
2008,05,18,09,52,18.10
2008,05,18,09,53,18.00
2008,05,18,09,54,18.00
2008,05,18,09,55,18.00
2008,05,18,09,56,18.00
2008,05,18,09,57,18.10
2008,05,18,09,58,18.10
2008,05,18,09,59,18.10
2008,05,18,10,00,18.20
2008,05,18,10,01,18.20
2008,05,18,10,02,18.20
2008,05,18,10,03,18.20
2008,05,18,10,04,18.20
2008,05,18,10,05,18.30
2008,05,18,10,06,18.30
2008,05,18,10,07,18.50
2008,05,18,10,08,18.50
2008,05,18,10,09,18.60
2008,05,18,10,10,18.60
2008,05,18,10,11,18.60
2008,05,18,10,12,18.60
2008,05,18,10,13,18.60
2008,05,18,10,14,18.60
2008,05,18,10,15,18.60
2008,05,18,10,16,18.60
2008,05,18,10,17,18.60
2008,05,18,10,18,18.70
2008,05,18,10,19,18.70
2008,05,18,10,20,18.80
2008,05,18,10,21,18.90
2008,05,18,10,22,19.00
2008,05,18,10,23,19.10
2008,05,18,10,24,19.10
2008,05,18,10,25,19.10
2008,05,18,10,26,19.10
2008,05,18,10,27,19.00
2008,05,18,10,28,18.90
2008,05,18,10,29,18.80
2008,05,18,10,30,18.70
2008,05,18,10,31,18.60
2008,05,18,10,32,18.50
2008,05,18,10,33,18.50
2008,05,18,10,34,18.50
2008,05,18,10,35,18.60
2008,05,18,10,36,18.60
2008,05,18,10,37,18.60
2008,05,18,10,38,18.70
2008,05,18,10,39,18.70
2008,05,18,10,40,18.70
2008,05,18,10,41,18.80
2008,05,18,10,42,18.80
2008,05,18,10,43,18.90
2008,05,18,10,44,18.90
2008,05,18,10,45,18.90
2008,05,18,10,46,19.00
2008,05,18,10,47,19.10
2008,05,18,10,48,19.00
2008,05,18,10,49,18.90
2008,05,18,10,50,18.80
2008,05,18,10,51,18.70
2008,05,18,10,52,18.60
2008,05,18,10,53,18.50
2008,05,18,10,54,18.30
2008,05,18,10,55,18.30
2008,05,18,10,56,18.20
2008,05,18,10,57,18.20
2008,05,18,10,58,18.30
2008,05,18,10,59,18.30
2008,05,18,11,00,18.30
2008,05,18,11,01,18.40
2008,05,18,11,02,18.40
2008,05,18,11,03,18.40
2008,05,18,11,04,18.40
2008,05,18,11,05,18.20
2008,05,18,11,06,18.20
2008,05,18,11,07,18.20
2008,05,18,11,08,18.20
2008,05,18,11,09,18.30
2008,05,18,11,10,18.30
2008,05,18,11,11,18.20
2008,05,18,11,12,18.20
2008,05,18,11,13,18.10
2008,05,18,11,14,18.10
2008,05,18,11,15,18.00
2008,05,18,11,16,18.00
2008,05,18,11,17,18.10
2008,05,18,11,18,18.20
2008,05,18,11,19,18.30
2008,05,18,11,20,18.30
2008,05,18,11,21,18.40
2008,05,18,11,22,18.40
2008,05,18,11,23,18.40
2008,05,18,11,24,18.40
2008,05,18,11,25,18.40
2008,05,18,11,26,18.40
2008,05,18,11,27,18.50
2008,05,18,11,28,18.60
2008,05,18,11,29,18.70
2008,05,18,11,30,18.70
2008,05,18,11,31,18.70
2008,05,18,11,32,18.80
2008,05,18,11,33,18.80
2008,05,18,11,34,18.70
2008,05,18,11,35,18.60
2008,05,18,11,36,18.50
2008,05,18,11,37,18.40
2008,05,18,11,38,18.40
2008,05,18,11,39,18.40
2008,05,18,11,40,18.50
2008,05,18,11,41,18.50
2008,05,18,11,42,18.50
2008,05,18,11,43,18.50
2008,05,18,11,44,18.50
2008,05,18,11,45,18.50
2008,05,18,11,46,18.60
2008,05,18,11,47,18.70
2008,05,18,11,48,18.80
2008,05,18,11,49,18.90
2008,05,18,11,50,18.90
2008,05,18,11,51,19.00
2008,05,18,11,52,19.00
2008,05,18,11,53,19.10
2008,05,18,11,54,19.30
2008,05,18,11,55,19.30
2008,05,18,11,56,19.40
2008,05,18,11,57,19.40
2008,05,18,11,58,19.60
2008,05,18,11,59,19.60
2008,05,18,12,00,19.60
2008,05,18,12,01,19.60
2008,05,18,12,02,19.50
2008,05,18,12,03,19.40
2008,05,18,12,04,19.30
2008,05,18,12,05,19.30
2008,05,18,12,06,19.30
2008,05,18,12,07,19.20
2008,05,18,12,08,19.20
2008,05,18,12,09,19.20
2008,05,18,12,10,19.20
2008,05,18,12,11,19.30
2008,05,18,12,12,19.40
2008,05,18,12,13,19.40
2008,05,18,12,14,19.30
2008,05,18,12,15,19.30
2008,05,18,12,16,19.30
2008,05,18,12,17,19.40
2008,05,18,12,18,19.40
2008,05,18,12,19,19.40
2008,05,18,12,20,19.40
2008,05,18,12,21,19.50
2008,05,18,12,22,19.60
2008,05,18,12,23,19.60
2008,05,18,12,24,19.70
2008,05,18,12,25,19.70
2008,05,18,12,26,19.60
2008,05,18,12,27,19.60
2008,05,18,12,28,19.60
2008,05,18,12,29,19.70
2008,05,18,12,30,19.70
2008,05,18,12,31,19.70
2008,05,18,12,32,19.60
2008,05,18,12,33,19.60
2008,05,18,12,34,19.60
2008,05,18,12,35,19.60
2008,05,18,12,36,19.50
2008,05,18,12,37,19.50
2008,05,18,12,38,19.60
2008,05,18,12,39,19.60
2008,05,18,12,40,19.70
2008,05,18,12,41,19.70
2008,05,18,12,42,19.70
2008,05,18,12,43,19.70
2008,05,18,12,44,19.70
2008,05,18,12,45,19.80
2008,05,18,12,46,19.80
2008,05,18,12,47,19.80
2008,05,18,12,48,19.80
2008,05,18,12,49,19.70
2008,05,18,12,50,19.70
2008,05,18,12,51,19.70
2008,05,18,12,52,19.80
2008,05,18,12,53,19.90
2008,05,18,12,54,20.00
2008,05,18,12,55,20.00
2008,05,18,12,56,20.10
2008,05,18,12,57,20.10
2008,05,18,12,58,20.30
2008,05,18,12,59,20.30
2008,05,18,13,00,20.30
2008,05,18,13,01,20.40
2008,05,18,13,02,20.50
2008,05,18,13,03,20.60
2008,05,18,13,04,20.50
2008,05,18,13,05,20.20
2008,05,18,13,06,19.80
2008,05,18,13,07,19.60
2008,05,18,13,08,19.40
2008,05,18,13,09,19.30
2008,05,18,13,10,19.20
2008,05,18,13,11,19.10
2008,05,18,13,12,19.10
2008,05,18,13,13,19.20
2008,05,18,13,14,19.20
2008,05,18,13,15,19.30
2008,05,18,13,16,19.30
2008,05,18,13,17,19.30
2008,05,18,13,18,19.30
2008,05,18,13,19,19.30
2008,05,18,13,20,19.10
2008,05,18,13,21,19.10
2008,05,18,13,22,19.10
2008,05,18,13,23,19.10
2008,05,18,13,24,19.10
2008,05,18,13,25,19.10
2008,05,18,13,26,19.00
2008,05,18,13,27,18.80
2008,05,18,13,28,18.70
2008,05,18,13,29,18.60
2008,05,18,13,30,18.50
2008,05,18,13,31,18.50
2008,05,18,13,32,18.40
2008,05,18,13,33,18.50
2008,05,18,13,34,18.50
2008,05,18,13,35,18.50
2008,05,18,13,36,18.40
2008,05,18,13,37,18.50
2008,05,18,13,38,18.60
2008,05,18,13,39,18.60
2008,05,18,13,40,18.70
2008,05,18,13,41,18.90
2008,05,18,13,42,19.00
2008,05,18,13,43,19.00
2008,05,18,13,44,19.10
2008,05,18,13,45,19.20
2008,05,18,13,46,19.10
2008,05,18,13,47,19.10
2008,05,18,13,48,19.10
2008,05,18,13,49,19.20
2008,05,18,13,50,19.30
2008,05,18,13,51,19.40
2008,05,18,13,52,19.50
2008,05,18,13,53,19.50
2008,05,18,13,54,19.60
2008,05,18,13,55,19.60
2008,05,18,13,56,19.60
2008,05,18,13,57,19.70
2008,05,18,13,58,19.70
2008,05,18,13,59,19.70
2008,05,18,14,00,19.70
2008,05,18,14,01,19.80
2008,05,18,14,02,19.90
2008,05,18,14,03,20.10
2008,05,18,14,04,20.10
2008,05,18,14,05,20.00
2008,05,18,14,06,20.10
2008,05,18,14,07,20.10
2008,05,18,14,08,20.20
2008,05,18,14,09,20.10
2008,05,18,14,10,19.90
2008,05,18,14,11,19.60
2008,05,18,14,12,19.50
2008,05,18,14,13,19.30
2008,05,18,14,14,19.30
2008,05,18,14,15,19.20
2008,05,18,14,16,19.10
2008,05,18,14,17,19.10
2008,05,18,14,18,19.00
2008,05,18,14,19,19.00
2008,05,18,14,20,18.80
2008,05,18,14,21,18.80
2008,05,18,14,22,18.80
2008,05,18,14,23,18.70
2008,05,18,14,24,18.60
2008,05,18,14,25,18.70
2008,05,18,14,26,18.70
2008,05,18,14,27,18.70
2008,05,18,14,28,18.80
2008,05,18,14,29,18.90
2008,05,18,14,30,19.00
2008,05,18,14,31,19.10
2008,05,18,14,32,19.20
2008,05,18,14,33,19.20
2008,05,18,14,34,19.20
2008,05,18,14,35,19.30
2008,05,18,14,36,19.30
2008,05,18,14,37,19.30
2008,05,18,14,38,19.30
2008,05,18,14,39,19.40
2008,05,18,14,40,19.40
2008,05,18,14,41,19.50
2008,05,18,14,42,19.50
2008,05,18,14,43,19.60
2008,05,18,14,44,19.70
2008,05,18,14,45,19.80
2008,05,18,14,46,19.90
2008,05,18,14,47,19.90
2008,05,18,14,48,19.90
2008,05,18,14,49,20.00
2008,05,18,14,50,20.10
2008,05,18,14,51,20.10
2008,05,18,14,52,20.20
2008,05,18,14,53,20.30
2008,05,18,14,54,20.30
2008,05,18,14,55,20.30
2008,05,18,14,56,20.30
2008,05,18,14,57,20.20
2008,05,18,14,58,20.20
2008,05,18,14,59,20.30
2008,05,18,15,00,20.40
2008,05,18,15,01,20.50
2008,05,18,15,02,20.40
2008,05,18,15,03,20.30
2008,05,18,15,04,20.30
2008,05,18,15,05,20.20
2008,05,18,15,06,20.20
2008,05,18,15,07,20.20
2008,05,18,15,08,20.10
2008,05,18,15,09,20.00
2008,05,18,15,10,19.90
2008,05,18,15,11,19.80
2008,05,18,15,12,19.70
2008,05,18,15,13,19.60
2008,05,18,15,14,19.60
2008,05,18,15,15,19.50
2008,05,18,15,16,19.40
2008,05,18,15,17,19.30
2008,05,18,15,18,19.20
2008,05,18,15,19,19.00
2008,05,18,15,20,18.90
2008,05,18,15,21,18.90
2008,05,18,15,22,18.80
2008,05,18,15,23,18.80
2008,05,18,15,24,18.80
2008,05,18,15,25,18.90
2008,05,18,15,26,19.00
2008,05,18,15,27,19.10
2008,05,18,15,28,19.10
2008,05,18,15,29,19.10
2008,05,18,15,30,19.00
2008,05,18,15,31,18.90
2008,05,18,15,32,18.80
2008,05,18,15,33,18.80
2008,05,18,15,34,18.70
2008,05,18,15,35,18.70
2008,05,18,15,36,18.70
2008,05,18,15,37,18.70
2008,05,18,15,38,18.80
2008,05,18,15,39,18.90
2008,05,18,15,40,18.90
2008,05,18,15,41,18.90
2008,05,18,15,42,18.90
2008,05,18,15,43,18.90
2008,05,18,15,44,18.90
2008,05,18,15,45,18.90
2008,05,18,15,46,18.90
2008,05,18,15,47,18.90
2008,05,18,15,48,19.00
2008,05,18,15,49,19.00
2008,05,18,15,50,19.10
2008,05,18,15,51,19.10
2008,05,18,15,52,19.10
2008,05,18,15,53,19.10
2008,05,18,15,54,19.10
2008,05,18,15,55,19.00
2008,05,18,15,56,18.80
2008,05,18,15,57,18.60
2008,05,18,15,58,18.50
2008,05,18,15,59,18.30
2008,05,18,16,00,18.10
2008,05,18,16,01,17.90
2008,05,18,16,02,17.80
2008,05,18,16,03,17.60
2008,05,18,16,04,17.50
2008,05,18,16,05,17.50
2008,05,18,16,06,17.40
2008,05,18,16,07,17.40
2008,05,18,16,08,17.40
2008,05,18,16,09,17.40
2008,05,18,16,10,17.40
2008,05,18,16,11,17.40
2008,05,18,16,12,17.50
2008,05,18,16,13,17.50
2008,05,18,16,14,17.60
2008,05,18,16,15,17.60
2008,05,18,16,16,17.60
2008,05,18,16,17,17.70
2008,05,18,16,18,17.70
2008,05,18,16,19,17.80
2008,05,18,16,20,17.80
2008,05,18,16,21,17.80
2008,05,18,16,22,17.80
2008,05,18,16,23,17.80
2008,05,18,16,24,17.80
2008,05,18,16,25,17.80
2008,05,18,16,26,17.80
2008,05,18,16,27,17.80
2008,05,18,16,28,17.90
2008,05,18,16,29,17.90
2008,05,18,16,30,17.90
2008,05,18,16,31,18.00
2008,05,18,16,32,18.10
2008,05,18,16,33,18.20
2008,05,18,16,34,18.20
2008,05,18,16,35,18.30
2008,05,18,16,36,18.40
2008,05,18,16,37,18.50
2008,05,18,16,38,18.60
2008,05,18,16,39,18.80
2008,05,18,16,40,18.90
2008,05,18,16,41,19.00
2008,05,18,16,42,19.10
2008,05,18,16,43,19.20
2008,05,18,16,44,19.20
2008,05,18,16,45,19.20
2008,05,18,16,46,19.10
2008,05,18,16,47,19.00
2008,05,18,16,48,18.90
2008,05,18,16,49,18.80
2008,05,18,16,50,18.70
2008,05,18,16,51,18.50
2008,05,18,16,52,18.30
2008,05,18,16,53,18.20
2008,05,18,16,54,18.10
2008,05,18,16,55,18.10
2008,05,18,16,56,18.00
2008,05,18,16,57,18.00
2008,05,18,16,58,18.00
2008,05,18,16,59,18.00
2008,05,18,17,00,18.00
2008,05,18,17,01,18.00
2008,05,18,17,02,18.00
2008,05,18,17,03,18.00
2008,05,18,17,04,18.10
2008,05,18,17,05,18.10
2008,05,18,17,06,18.10
2008,05,18,17,07,18.10
2008,05,18,17,08,18.10
2008,05,18,17,09,18.10
2008,05,18,17,10,18.20
2008,05,18,17,11,18.20
2008,05,18,17,12,18.30
2008,05,18,17,13,18.40
2008,05,18,17,14,18.50
2008,05,18,17,15,18.70
2008,05,18,17,16,18.80
2008,05,18,17,17,18.90
2008,05,18,17,18,18.90
2008,05,18,17,19,18.90